Regional Weather Roundup
Issued by NWS Charleston, SC

Current Version | Previous Version | Text Only | Print | Product List | Glossary Off
Versions: 1 2 3 4 5 6 7 8 9 10 11 12 13 14 15 16 17 18 19 20 21 22 23 24 25 26 27 28 29 30 31 32 33 34 35 36 37 38 39 40 41 42 43 44 45 46 47 48 49 50
483 ASUS42 KCHS 011512 RWRCHS REGIONAL WEATHER ROUNDUP NATIONAL WEATHER SERVICE CHARLESTON SC 1000 AM EST WED MAR 01 2017 NOTE: "FAIR" INDICATES FEW OR NO CLOUDS BELOW 12,000 FEET WITH NO SIGNIFICANT WEATHER AND/OR OBSTRUCTIONS TO VISIBILITY. NOT ALL STATIONS ARE QUALITY CONTROLLED. USE DATA WITH CAUTION... ESPECIALLY DEWPOINT OBSERVATIONS. SCZ027-030-031-034>040-042>050-011600- ...SOUTHEAST SOUTH CAROLINA... CITY SKY/WX TMP DP RH WIND PRES REMARKS N CHARLESTON PTSUNNY 74 66 76 SW12 30.10F WATERFRONT PRK N/A 68 67 97 SW12G22 30.10S MOUNT PLEASANT CLOUDY 72 66 83 S15G24 30.11F JOHNS ISLAND CLOUDY 68 66 94 SW13G20 30.11F FOG PINOPOLIS N/A 72 66 83 SW7 30.01S MONCKS CORNER FAIR 73 64 73 SW12 30.09S SUMMERVILLE FAIR 73 64 73 S8 30.10S BEAUFORT MCAS PTSUNNY 75 68 78 S9G16 30.11F BEAUFORT ARPT FAIR 70 66 88 S9 30.11F HILTON HEAD IS NOT AVBL WALTERBORO MOSUNNY 73 64 73 SW13 30.10F ALLENDALE PTSUNNY 73 66 78 VRB7G13 30.08F ...SOUTHERN MIDLANDS AND PEE DEE... CITY SKY/WX TMP DP RH WIND PRES REMARKS GEORGETOWN CLOUDY 72 66 83 SW10G21 30.10F KINGSTREE FAIR 73 63 68 S10G23 30.06F ORANGEBURG CLOUDY 70 65 84 SW16 30.06F BARNWELL CLOUDY 70 66 88 SW12 30.08F AIKEN CLOUDY 66 61 82 SW17G24 30.11R MANNING PTSUNNY 70 54 56 MISG 30.07F COLUMBIA CLOUDY 69 62 78 W16G22 30.06R SUMTER PTSUNNY 71 63 76 SW14 30.04S FLORENCE PTSUNNY 73 65 75 SW14G24 30.05S MYRTLE BEACH PTSUNNY 70 64 83 S16 30.09F N MYRTLE BEACH CLOUDY 66 66 100 SW18 30.09R $$ GAZ063-065-086>088-099>101-113>116-118-119-134>141-150-011600- ...SOUTHEAST GEORGIA... CITY SKY/WX TMP DP RH WIND PRES REMARKS SAVANNAH ARPT PTSUNNY 75 64 68 SW10 30.12S HUNTER AAF PTSUNNY 73 71 92 SW10 30.10S FORT STEWART PTSUNNY 73 65 75 SW10 30.11S STATESBORO PTSUNNY 70 67 89 SW14G21 30.11F SYLVANIA CLOUDY N/A N/A N/A SW8G16 30.11F CLAXTON PTSUNNY N/A N/A N/A S8 30.12F ...CSRA...CENTRAL AND FAR SOUTHEAST GEORGIA... CITY SKY/WX TMP DP RH WIND PRES REMARKS THOMSON CLOUDY 68 64 88 W9 30.13R AUGUSTA-BUSH CLOUDY 70 63 78 SW13G18 30.08R AUGUSTA-DANIEL CLOUDY 69 59 70 SW8G18 30.09R SWAINSBORO CLOUDY 70 64 83 SW8 30.11S VIDALIA CLOUDY 68 68 100 SW10 30.12S EASTMAN CLOUDY 72 62 70 SW10G16 30.13S HAZLEHURST CLOUDY 71 69 93 SW15G21 30.12S ALMA CLOUDY 68 66 93 S10 30.14R WAYCROSS CLOUDY 71 71 100 SW8 30.15R FOG JESUP PTSUNNY 73 64 73 SW9 30.14R BAXLEY CLOUDY 70 70 100 SW7 30.13F BRUNSWICK MOSUNNY 77 70 78 SW12 30.14F SAINT SIMONS MOSUNNY 75 66 73 SW9 30.13F $$ SCZ027-028-034-036>038-045-046-048>050-GAZ119-141-011600- ...LAKE AND SUPPLEMENTAL COASTAL OBSERVATIONS... STATION/POSITION TIME TEMP WIND PRES WAVE SWELL AIR SEA DIR/SP/G HT/PER HT/PER/DIR (UTC) (F) (DEG/KT/KT) (MB) (FT/S) (FT/S/D) WINYAH BAY NOT AVBL LAKE MURRAY 1420 66 240/ 9/ 16 1017.3 ACE BASIN NERRS NOT AVBL FORT PULASKI 1448 68 64 210/ 6/ 10 1020.4R SAPELO ISLAND 1400 70 200/ 9 1020.0 $$ ANZ835-935-AMZ111-154-330-350-352-354-370-450-454-472-011600- ...C-MAN AND BUOY OBSERVATIONS... STATION/POSITION TIME TEMP WIND PRES WAVE SWELL AIR SEA DIR/SP/G HT/PER HT/PER/DIR (UTC) (F) (DEG/KT/KT) (MB) (FT/S) (FT/S/D) BUOY 41004 1350 71 69 220/ 14/ 16 1019.8 4/ 6 2/150/ 7 BUOY 41008 1350 65 63 190/ 12/ 14 1020.1 3/ 6 2/110/ 6 FOLLY BEACH CMAN 1400 64 210/ 12/ 13 1020.5F CAPERS NEARSHORE 1408 64 62 230/ 12/ 16 1019.6F FRIPP NEARSHORE 1408 65 62 200/ 12/ 17 1019.9R STATION/POSITION TIME TEMP WIND PRES WAVE SWELL AIR SEA DIR/SP/G HT/PER HT/PER/DIR (UTC) (F) (DEG/KT/KT) (MB) (FT/S) (FT/S/D) 5E ST. MARYS GA 1430 65 N/A 3/ 6 FRYING PAN BUOY 1450 72 70 190/ 19/ 23 1019.5S 5/ 6 2/160/ 7 BUOY 41025 1450 72 74 210/ 23/ 29 1017.9S 9/ 7 2/340/15 CAPE LOOKOUT NC 1400 68 200/ 13/ 19 1019.0R BUOY 41002 1450 71 71 160/ 16/ 17 1023.1R 4/ 6 2/350/16 BUOY 41010 NOT AVBL ST AUGUSTINE FL 1500 75 69 190/ 12/ 15 1022.1F $$

USA.gov is the U.S. government's official web portal to all federal, state and local government web resources and services.